Cloud_Cover
100 100 100 100 100 100 100 100 100 100 100 100 100 66 69 7 5 5 6 66 7 51 41 11 100 100 100 100 100 98 0 4 3 0 1 53 47 39 5 5 76 95 17 5
60 79 100 40 92 100 100 100 100 100 100 100 91 71 32 100 31 96 91 100 58 95 100 99 100 100 21 14 84 100 54 2 0 0 24 12 78 95 100 12 41 100 100 11
100 98 100 91 92 100 100 100 100 100 100 100 100 52 100 97 100 100 99 90 100 78 49 97 100 42 98 87 98 100 100 79 5 8 14 3 84 100 100 97 98 100 70 99
100 100 100 99 100 100 100 100 100 97 93 100 100 98 70 81 89 100 100 100 100 100 100 100 100 100 100 100 37 100 88 100 58 100 94 98 96 100 83 100 100 100 86 70
100 100 94 99 33 19 99 99 88 100 98 97 100 100 100 100 100 72 100 100 100 100 100 86 100 100 100 100 24 22 5 53 100 100 96 100 100 100 32 85 100 88 100 100
43 84 55 100 100 93 58 96 100 100 100 99 90 100 100 100 100 100 100 41 94 100 100 100 100 72 62 19 49 35 19 85 100 100 86 100 100 100 100 100 100 99 100 100
8 22 32 73 100 100 96 81 100 100 100 100 97 100 100 100 100 100 100 100 100 100 100 95 95 100 99 49 83 43 41 77 100 100 100 73 97 100 100 100 100 97 96 100
0 2 39 49 93 100 100 99 100 100 100 100 16 100 100 100 100 100 100 100 100 100 100 100 100 100 95 87 100 100 100 100 100 77 99 100 100 100 100 100 100 100 90 25
0 0 0 39 100 36 94 96 13 2 0 47 100 100 100 100 100 100 100 100 100 100 100 100 100 100 100 100 72 86 99 92 100 100 100 100 100 100 100 100 100 100 100 100
0 0 0 0 24 69 38 0 0 0 0 0 2 76 100 100 100 100 100 100 100 100 100 100 95 88 100 100 100 97 100 100 100 100 100 100 100 100 100 100 100 100 100 100
0 0 0 0 0 80 0 0 0 0 0 0 3 0 88 48 100 100 100 100 100 100 100 100 100 100 100 100 100 100 100 100 100 100 100 100 100 100 100 100 100 100 100 100
0 0 0 5 0 0 0 0 0 3 0 0 7 1 100 100 100 100 100 100 100 100 90 40 99 100 100 100 100 100 100 100 100 100 100 100 100 100 100 100 100 100 100 100
2 1 2 5 5 10 0 4 3 1 5 0 0 12 100 100 100 81 92 65 42 92 100 100 100 100 100 100 100 100 100 100 100 100 100 100 100 100 100 100 98 90 64 90
5 5 5 5 5 12 5 3 3 26 4 1 0 81 100 100 100 100 100 100 100 99 52 100 100 100 100 100 100 100 99 100 100 100 100 100 100 100 94 96 100 100 100 100
5 5 4 0 0 0 0 5 9 5 5 4 3 5 88 100 100 94 100 100 58 31 5 87 100 100 100 100 100 100 100 100 100 100 100 100 100 100 100 100 100 100 100 100
1 83 63 69 5 3 0 0 1 5 19 6 7 79 97 100 100 100 100 35 6 27 25 44 35 79 82 100 100 100 100 100 100 100 100 100 100 100 100 100 100 100 100 92
37 5 6 29 15 5 4 6 7 10 5 25 69 99 100 100 100 100 100 100 100 100 100 91 40 9 5 93 100 100 100 87 76 89 92 88 100 100 100 100 100 100 100 100
10 77 43 3 0 0 0 3 100 80 76 60 52 70 2 26 88 98 89 38 60 97 60 13 5 3 3 3 34 48 86 90 50 47 37 68 74 24 16 44 27 34 5 5
74 1 0 0 0 0 0 0 15 5 66 100 96 98 4 91 65 82 12 5 7 7 5 5 5 4 4 5 5 5 5 5 4 1 0 0 1 3 3 5 4 5 4 84
0 0 0 0 0 0 9 2 3 52 100 100 95 100 100 100 100 100 100 100 100 100 89 31 2 1 0 0 0 0 0 0 0 0 0 0 0 0 0 2 5 36 18 18
0 0 0 0 0 0 0 4 4 2 86 100 100 100 100 100 100 100 100 100 80 90 37 0 2 0 0 0 0 0 0 0 0 0 0 0 1 0 0 0 0 0 17 64
0 0 0 0 4 4 0 6 10 80 100 65 50 97 100 100 100 100 100 89 38 62 65 40 4 0 4 0 0 0 0 0 0 0 0 0 0 0 0 0 0 0 0 2
0 0 0 0 0 1 0 5 38 25 5 29 100 100 100 100 100 100 92 47 57 11 89 99 75 10 5 0 0 0 0 0 0 0 0 0 0 0 0 0 0 0 0 4
0 0 0 0 0 0 0 3 4 5 5 72 82 27 35 5 5 5 5 4 4 62 70 18 56 25 0 0 0 0 0 0 7 6 5 3 0 0 0 0 0 0 0 5
0 0 0 0 0 0 0 0 3 5 16 7 5 10 8 7 6 4 4 4 0 4 6 4 5 0 0 0 0 0 0 1 5 95 5 45 3 5 2 0 0 1 5 58
0 0 0 0 3 0 0 1 0 0 0 0 0 0 0 1 0 1 0 0 0 2 3 16 2 0 0 0 0 0 0 2 5 0 8 93 78 45 14 11 40 29 15 12